Content
SEND FEEDBACK

Daily
Averages
Monthly
Summary
Canada

DELTA, BRITISH COLUMBIA


Home > North America > Canada > British Columbia
Elevation: 30 feet     Latitude: 49 10N     Longitude: 123 10W

WEATHER
 
SELECT A DAY
Number of Records: 249,842;   Date Range: 5/15/97 - 9/17/14
 
SHARE

PRINT THIS DATA

[ ← Previous Day ]
WEATHER ALMANAC - SEPTEMBER 1, 2013
[ Next Day → ]
[ °C ]   °F
Weather ElementAverageHighLow
Temperature62.3 °F73.4 °F (2:55 pm)53.6 °F (3:55 am)
Dewpoint55.2 °F57.2 °F (10:55 am)53.6 °F (12:35 am)
Humidity79.2 %100 % (3:55 am)53 % (4:55 pm)
Barometer29.83 in29.87 in (8:15 am)29.78 in (5:15 pm)
Wind Speed3 mph11.5 mph (5:55 pm)
Weather ElementAverage
Visibility10 mi
Wind DirectionENE (75.2 °)

Weather ElementTotal
Precipitation---
Heating Degree Days1.5 (Base 65)
Growing Degree Days13.5 (Base 50)
Averaged from 71 records on September 1, 2013
WEATHER CONDITIONS BREAKOUT
WIND DIRECTION BREAKOUT
WEATHER BY HOUR - SEPTEMBER 1, 2013
[ °C ]   °F
Local TimeTemperatureDewpointHumidityBarometerVisibilityWind DirectionWind SpeedGust SpeedPrecipitationEventsConditions
12:35 AM55.4 °F53.6 °F94 %29.85 in10.0 miCalmClear
12:55 AM55.4 °F53.6 °F94 %29.84 in10.0 miCalmClear
1:15 AM57.2 °F53.6 °F88 %29.84 in10.0 miCalmClear
1:35 AM55.4 °F53.6 °F94 %29.84 in10.0 miCalmClear
1:55 AM55.4 °F53.6 °F94 %29.84 in10.0 miCalmClear
2:15 AM57.2 °F53.6 °F88 %29.84 in10.0 miCalmClear
2:35 AM55.4 °F53.6 °F94 %29.85 in10.0 miCalmClear
2:55 AM55.4 °F53.6 °F94 %29.84 in10.0 miCalmClear
3:15 AM55.4 °F53.6 °F94 %29.84 in10.0 miCalmClear
3:35 AM55.4 °F53.6 °F94 %29.85 in10.0 miCalmClear
3:55 AM53.6 °F53.6 °F100 %29.85 in10.0 miCalmClear
4:15 AM53.6 °F53.6 °F100 %29.85 in10.0 miCalmClear
4:35 AM53.6 °F53.6 °F100 %29.85 in10.0 miNorthClear
4:55 AM53.6 °F53.6 °F100 %29.86 in10.0 miCalmClear
5:15 AM53.6 °F53.6 °F100 %29.85 in10.0 miNorthClear
5:35 AM53.6 °F53.6 °F100 %29.85 in10.0 miCalmClear
5:55 AM53.6 °F53.6 °F100 %29.86 in10.0 miNorthClear
6:15 AM53.6 °F53.6 °F100 %29.86 in10.0 miCalmClear
6:35 AM53.6 °F53.6 °F100 %29.86 in10.0 miCalmClear
6:55 AM53.6 °F53.6 °F100 %29.86 in10.0 miCalmClear
7:15 AM53.6 °F53.6 °F100 %29.86 in10.0 miCalmClear
7:35 AM55.4 °F53.6 °F94 %29.86 in10.0 miCalmClear
7:55 AM57.2 °F55.4 °F94 %29.86 in10.0 miCalmClear
8:15 AM59.0 °F55.4 °F88 %29.87 in10.0 miCalmClear
8:35 AM59.0 °F55.4 °F88 %29.87 in10.0 miCalmClear
8:55 AM62.6 °F55.4 °F77 %29.87 in10.0 miNorthClear
9:15 AM62.6 °F55.4 °F77 %29.86 in10.0 miCalmClear
9:35 AM64.4 °F55.4 °F73 %29.86 in10.0 miCalmClear
9:55 AM62.6 °F55.4 °F77 %29.85 in10.0 miCalmClear
10:15 AM62.6 °F55.4 °F77 %29.86 in10.0 miCalmClear
10:35 AM62.6 °F55.4 °F77 %29.86 in10.0 miCalmClear
10:55 AM62.6 °F57.2 °F82 %29.86 in10.0 miNorth (360°)4.6 mphClear
11:15 AM62.6 °F55.4 °F77 %29.85 in10.0 miCalmClear
11:35 AM64.4 °F55.4 °F73 %29.85 in10.0 miCalmClear
11:55 AM64.4 °F55.4 °F73 %29.84 in10.0 miNorth (350°)5.8 mphClear
12:15 PM64.4 °F57.2 °F77 %29.84 in10.0 miCalmPartly Cloudy
12:35 PM66.2 °F57.2 °F73 %29.84 in10.0 miNorth (350°)3.5 mphClear
12:55 PM68.0 °F57.2 °F68 %29.83 in10.0 miNorth (10°)3.5 mphClear
1:15 PM66.2 °F57.2 °F73 %29.83 in10.0 miNorth (10°)5.8 mphClear
1:35 PM68.0 °F57.2 °F68 %29.82 in10.0 miNorth (10°)5.8 mphClear
1:55 PM68.0 °F57.2 °F68 %29.82 in10.0 miNorth (350°)4.6 mphClear
2:15 PM68.0 °F57.2 °F68 %29.81 in10.0 miCalmClear
2:35 PM71.6 °F57.2 °F60 %29.81 in10.0 miCalmClear
2:55 PM73.4 °F57.2 °F57 %29.80 in10.0 miSouth (190°)5.8 mphClear
3:15 PM73.4 °F57.2 °F57 %29.80 in10.0 miNorth (10°)5.8 mphPartly Cloudy
3:35 PM68.0 °F57.2 °F68 %29.80 in10.0 miNorth (350°)4.6 mphClear
3:55 PM68.0 °F55.4 °F64 %29.79 in10.0 miCalmClear
4:15 PM68.0 °F55.4 °F64 %29.79 in10.0 miNorth (350°)4.6 mphClear
4:35 PM68.0 °F57.2 °F68 %29.79 in10.0 miCalmClear
4:55 PM73.4 °F55.4 °F53 %29.79 in10.0 miNorthClear
5:15 PM73.4 °F55.4 °F53 %29.78 in10.0 miSouth (190°)9.2 mphPartly Cloudy
5:35 PM73.4 °F57.2 °F57 %29.78 in10.0 miSouth (180°)6.9 mphClear
5:55 PM71.6 °F55.4 °F57 %29.78 in10.0 miSouth (190°)11.5 mphClear
6:15 PM71.6 °F55.4 °F57 %29.78 in10.0 miSouth (190°)9.2 mphClear
6:35 PM69.8 °F55.4 °F60 %29.78 in10.0 miSouth (190°)8.1 mphPartly Cloudy
6:55 PM68.0 °F57.2 °F68 %29.78 in10.0 miSouth (190°)10.4 mphPartly Cloudy
7:15 PM68.0 °F55.4 °F64 %29.78 in10.0 miSouth (190°)11.5 mphClear
7:35 PM66.2 °F55.4 °F68 %29.79 in10.0 miSouth (190°)10.4 mphClear
7:55 PM66.2 °F55.4 °F68 %29.79 in10.0 miSouth (180°)8.1 mphClear
8:15 PM64.4 °F55.4 °F73 %29.80 in10.0 miSouth (180°)9.2 mphClear
8:35 PM66.2 °F55.4 °F68 %29.81 in10.0 miSSW (200°)9.2 mphClear
8:55 PM64.4 °F55.4 °F73 %29.81 in10.0 miSouth (190°)8.1 mphClear
9:15 PM64.4 °F55.4 °F73 %29.82 in10.0 miSouth (190°)6.9 mphClear
9:35 PM64.4 °F55.4 °F73 %29.82 in10.0 miSouth (190°)6.9 mphClear
9:55 PM62.6 °F55.4 °F77 %29.83 in10.0 miSouth (180°)5.8 mphClear
10:15 PM62.6 °F55.4 °F77 %29.83 in10.0 miCalmClear
10:35 PM62.6 °F55.4 °F77 %29.83 in10.0 miNorthClear
10:55 PM60.8 °F55.4 °F82 %29.84 in10.0 miSouth (180°)3.5 mphClear
11:15 PM60.8 °F55.4 °F82 %29.84 in10.0 miCalmClear
11:35 PM59.0 °F55.4 °F88 %29.84 in10.0 miNorthClear
11:55 PM59.0 °F55.4 °F88 %29.84 in10.0 miCalmClear
Hourly data recorded from CZBB, located miles away from Delta, British Columbia







STORIES FROM OUR PARTNERS